[[{"header":{"parameterUnit":"m.s-1","parameterCategory":2,"la1":30.2991,"la2":30.254,"lo1":-89.0895,"lo2":-89.0444,"dy":0.0017,"dx":0.0017,"nx":28,"ny":28,"refTime":"2025-02-11T03:00:00:Z","depth":"0","parameterNumber":2,"parameterNumberName":"U-component_of_CURRENTS"},"data":[0,0,0,0,0,0,0,0,0,0,0,0,0,0,0,0,0,0,0,0,0,0,0,0,0,0,0,0,0,0,0,0,0,0,0,0,0,0,0,0,0,0,0,0,0,0,0,0,0,0,0,0,0,0,0,0,0,0,0.193,0.193,0,0.1886,0.1886,0.1885,0.186,0.186,0.186,0.186,0.1833,0.1832,0.1832,0,0,0,0,0,0,0,0,0,0,0,0,0,0.1979,0.1978,0.193,0.1929,0.1929,0.1886,0.1886,0.1885,0.186,0.186,0.186,0.186,0.1833,0.1832,0.1832,0,0,0,0,0,0,0,0,0,0,0,0,0,0.1948,0.1978,0.193,0.1912,0.191,0.1886,0.1886,0.1885,0.186,0.186,0.186,0.186,0.1834,0.1832,0.1831,0.1825,0,0,0.1828,0.1828,0,0,0,0,0,0,0,0,0.195,0.1946,0.1915,0.1913,0.1911,0.1879,0.1893,0.1866,0.186,0.1878,0.186,0.186,0.1851,0.1848,0.1838,0.1824,0.1823,0.1828,0.1827,0.1827,0.1827,0,0,0,0,0,0,0,0.1952,0.1948,0.1912,0.1915,0.1912,0.1902,0.1897,0.1888,0.1865,0.1877,0.1875,0.1871,0.1849,0.184,0.1838,0.1822,0.1828,0.1827,0.1827,0.1826,0.1835,0.1836,0,0,0,0,0,0,0.196,0.195,0.1913,0.1911,0.1932,0.1901,0.1896,0.1889,0.1864,0.1861,0.1871,0.187,0.1841,0.1839,0.1837,0.1853,0.1827,0.1826,0.1825,0.1834,0.1835,0.1836,0,0,0,0,0,0,0.1961,0.1957,0.1915,0.193,0.1924,0.1901,0.1892,0.1888,0.188,0.186,0.1857,0.1869,0.1841,0.1838,0.1834,0.1851,0.1826,0.1825,0.1833,0.1835,0.1836,0.1869,0,0,0,0,0,0,0.1962,0.1957,0.1955,0.1931,0.1924,0.1901,0.1892,0.1887,0.1878,0.1877,0.1857,0.1854,0.1841,0.1836,0.1833,0.1849,0.1824,0.1832,0.1834,0.1836,0.1867,0.1871,0.1875,0,0,0,0,0,0.1964,0.1958,0.1955,0.1951,0.1921,0.1901,0.1896,0.1879,0.1878,0.1873,0.1866,0.1855,0.1845,0.1836,0.1832,0.1848,0.1831,0.1834,0.1835,0.1865,0.187,0.1875,0,0,0,0,0,0,0.1973,0.1955,0.1951,0.1938,0.1923,0.1897,0.189,0.1883,0.1872,0.1874,0.1858,0.1855,0.1861,0.185,0.184,0.1857,0.184,0.1841,0.1863,0.1868,0.1872,0.1872,0.1823,0,0,0,0,0,0.1976,0.197,0.195,0.194,0.1935,0.1915,0.1906,0.1896,0.1883,0.1878,0.1865,0.1861,0.1866,0.1863,0.1859,0.1861,0.1866,0.1873,0.1877,0.188,0.1879,0.1913,0.192,0.1843,0.1843,0.1843,0,0,0.1975,0.1966,0.1961,0.1943,0.193,0.192,0.1909,0.1897,0.1894,0.1878,0.1872,0.1873,0.1871,0.1878,0.188,0.1869,0.1904,0.1883,0.1886,0.1883,0.1916,0.1923,0.193,0.1844,0.1844,0.1844,0,0,0.1968,0.1964,0.1956,0.1947,0.1932,0.1925,0.1924,0.1903,0.19,0.1894,0.1894,0.1905,0.1894,0.1902,0.1906,0.1931,0.1927,0.1933,0.195,0.1983,0.1989,0.1995,0.2008,0.2014,0.1933,0.1933,0.1933,0,0.1968,0.1954,0.195,0.194,0.1934,0.193,0.192,0.1918,0.19,0.1907,0.1896,0.1913,0.1908,0.1937,0.1944,0.194,0.1952,0.193,0.1988,0.1994,0.2,0.2011,0.2018,0.1935,0.1935,0.1934,0.1934,0,0.1952,0.1945,0.194,0.1932,0.1927,0.1917,0.1917,0.192,0.1921,0.1924,0.1947,0.1945,0.1957,0.1964,0.1957,0.2,0.1993,0.1992,0.1975,0.201,0.2019,0.2026,0.1937,0.1937,0.1936,0.1936,0,0,0.1937,0.193,0.1928,0.1923,0.1922,0.1913,0.1926,0.1935,0.1955,0.1953,0.1976,0.1991,0.2001,0.2006,0.2011,0.2034,0.2079,0.2028,0.2029,0.2039,0.2142,0.2086,0.2087,0.2093,0.2094,0.2096,0.2132,0,0.1923,0.1907,0.1911,0.1901,0.1892,0.1905,0.192,0.1935,0.1955,0.1979,0.2002,0.2023,0.2016,0.2028,0.2054,0.2076,0.2098,0.2068,0.2108,0.2109,0.2054,0.2094,0.1979,0.1999,0.2139,0.214,0.2141,0,0.1899,0.1895,0.188,0.1889,0.1889,0.189,0.1921,0.1935,0.1984,0.2004,0.2041,0.2055,0.2095,0.208,0.2139,0.2122,0.2133,0.2144,0.2146,0.2085,0.2065,0.1988,0.2005,0.1931,0.2151,0.215,0.2149,0,0.1875,0.1871,0.1861,0.186,0.1873,0.1879,0.1897,0.1942,0.1969,0.2024,0.2046,0.21,0.2124,0.2156,0.2176,0.2164,0.2233,0.2222,0.2181,0.2176,0.2081,0.2065,0.2028,0.2262,0.2262,0.2262,0.2262,0,0.1851,0.1842,0.185,0.184,0.1848,0.1866,0.1892,0.1925,0.1981,0.2012,0.2058,0.2088,0.2146,0.2185,0.2197,0.221,0.2255,0.2188,0.2188,0.2087,0.2073,0.2005,0.1988,0.2263,0.2263,0.2263,0.2263,0,0.182,0.1822,0.1813,0.1826,0.1831,0.1839,0.1881,0.1906,0.1963,0.2003,0.2019,0.2098,0.2141,0.2184,0.2242,0.2231,0.2175,0.2241,0.2108,0.209,0.1958,0.1948,0.1863,0.1809,0.2195,0.2194,0.2193,0,0.1802,0.1791,0.1798,0.1794,0.1797,0.1814,0.1828,0.189,0.1917,0.1997,0.2009,0.2074,0.2096,0.2164,0.2165,0.2178,0.2129,0.208,0.2032,0.1937,0.1927,0.1865,0.1822,0.192,0.1917,0.1915,0.1913,0,0.1772,0.1774,0.1769,0.1761,0.1764,0.1772,0.1794,0.1813,0.1878,0.1907,0.1949,0.1974,0.2034,0.2007,0.2034,0.2026,0.1953,0.2027,0.1971,0.1742,0.1631,0.1582,0.1904,0.189,0.1893,0.1894,0.1895,0.1896,0.1752,0.1741,0.1732,0.1717,0.172,0.1707,0.1689,0.1717,0.1736,0.1746,0.1838,0.1828,0.1856,0.187,0.1861,0.1754,0.179,0.1681,0.1689,0.1643,0.1548,0.1808,0.1768,0.177,0.1771,0.1772,0.1773,0,0.171,0.1695,0.1685,0.1654,0.1625,0.1647,0.1643,0.1609,0.1582,0.162,0.1634,0.161,0.157,0.158,0.1512,0.1433,0.1371,0.1382,0.1269,0.1255,0.1517,0.146,0.1299,0.1299,0.1299,0.13,0.13,0.13,0.1687,0.1648,0.1631,0.1555,0.1533,0.1469,0.1445,0.1411,0.1411,0.1357,0.1328,0.1351,0.1381,0.1317,0.1208,0.1174,0.1089,0.1013,0.1051,0.1232,0.126,0.1286,0.1227,0.102,0.102,0.0704,0.0702,0.07]},{"header":{"parameterUnit":"m.s-1","parameterCategory":2,"la1":30.2991,"la2":30.254,"lo1":-89.0895,"lo2":-89.0444,"dy":0.0017,"dx":0.0017,"nx":28,"ny":28,"refTime":"2025-02-11T03:00:00:Z","depth":"0","parameterNumber":3,"parameterNumberName":"V-component_of_CURRENTS"},"data":[0,0,0,0,0,0,0,0,0,0,0,0,0,0,0,0,0,0,0,0,0,0,0,0,0,0,0,0,0,0,0,0,0,0,0,0,0,0,0,0,0,0,0,0,0,0,0,0,0,0,0,0,0,0,0,0,0,0,0.0246,0.0246,0,0.023,0.023,0.0229,0.0211,0.0211,0.0211,0.0211,0.0187,0.0187,0.0187,0,0,0,0,0,0,0,0,0,0,0,0,0,0.0238,0.0238,0.0246,0.0246,0.0245,0.023,0.023,0.0229,0.0211,0.0211,0.0211,0.021,0.0188,0.0187,0.0187,0,0,0,0,0,0,0,0,0,0,0,0,0,0.0233,0.0238,0.0246,0.0235,0.0234,0.023,0.023,0.0229,0.0211,0.0211,0.0211,0.021,0.0188,0.0187,0.0187,0.0189,0,0,0.0185,0.0184,0,0,0,0,0,0,0,0,0.0233,0.0233,0.0237,0.0236,0.0235,0.0223,0.0218,0.0216,0.0211,0.0219,0.0211,0.021,0.0199,0.0198,0.0195,0.0188,0.0187,0.0185,0.0184,0.0184,0.0184,0,0,0,0,0,0,0,0.0234,0.0234,0.0239,0.0237,0.0235,0.0223,0.0222,0.0218,0.021,0.0218,0.0217,0.0217,0.0199,0.0195,0.0194,0.0186,0.0185,0.0184,0.0184,0.0183,0.0183,0.0183,0,0,0,0,0,0,0.0239,0.0234,0.0239,0.0238,0.0234,0.0224,0.0223,0.0226,0.0211,0.0208,0.0217,0.0216,0.0196,0.0195,0.0193,0.0207,0.0184,0.0183,0.0183,0.0182,0.0183,0.0183,0,0,0,0,0,0,0.0239,0.0239,0.024,0.0236,0.0235,0.0225,0.0228,0.0226,0.0224,0.021,0.0207,0.0217,0.0196,0.0194,0.0192,0.0205,0.0183,0.0182,0.0182,0.0182,0.0183,0.0227,0,0,0,0,0,0,0.0239,0.024,0.0242,0.0237,0.0236,0.0242,0.0229,0.0226,0.0224,0.0223,0.0209,0.0207,0.0196,0.0193,0.0192,0.0204,0.0182,0.0181,0.0182,0.0183,0.0225,0.0229,0.0232,0,0,0,0,0,0.0238,0.0248,0.0243,0.0243,0.0241,0.0242,0.0241,0.0231,0.0225,0.0227,0.0218,0.0207,0.0196,0.0193,0.0191,0.0204,0.0181,0.0182,0.0183,0.0223,0.0228,0.0232,0,0,0,0,0,0,0.0245,0.0247,0.0241,0.025,0.0247,0.024,0.0241,0.0235,0.0229,0.0227,0.0212,0.0209,0.0213,0.0201,0.0198,0.0204,0.0187,0.0187,0.0218,0.0223,0.0226,0.0236,0.0181,0,0,0,0,0,0.0248,0.0256,0.0253,0.0259,0.0259,0.025,0.0249,0.0243,0.0238,0.0235,0.0226,0.0217,0.0215,0.0213,0.0206,0.0211,0.0199,0.0217,0.022,0.0223,0.0229,0.0222,0.0226,0.0186,0.0186,0.0186,0,0,0.0252,0.0254,0.0257,0.0261,0.0257,0.0266,0.0249,0.0251,0.0258,0.0234,0.0241,0.023,0.0218,0.0224,0.0224,0.0216,0.0228,0.0224,0.0227,0.0231,0.0224,0.0228,0.0231,0.0186,0.0186,0.0186,0,0,0.0268,0.0266,0.0279,0.0281,0.028,0.0277,0.028,0.0275,0.0272,0.0275,0.0262,0.0259,0.0252,0.0249,0.0246,0.0265,0.0248,0.0263,0.029,0.0284,0.0287,0.029,0.0281,0.0283,0.0265,0.0265,0.0265,0,0.0272,0.029,0.0282,0.0296,0.0303,0.0286,0.0303,0.0298,0.0293,0.0301,0.0282,0.0281,0.0265,0.0281,0.0284,0.0274,0.0267,0.0276,0.0289,0.0292,0.0294,0.0284,0.0285,0.0267,0.0267,0.0267,0.0267,0,0.0301,0.0313,0.0321,0.0336,0.0341,0.0351,0.0347,0.035,0.0342,0.0342,0.035,0.0326,0.0327,0.0321,0.0306,0.0321,0.0309,0.0295,0.0281,0.0301,0.0289,0.0289,0.0271,0.027,0.0269,0.0269,0,0,0.0317,0.0339,0.0341,0.0357,0.0363,0.0374,0.0385,0.04,0.0424,0.0402,0.0426,0.0407,0.0394,0.0389,0.037,0.0361,0.0362,0.0337,0.0335,0.0332,0.0349,0.0342,0.0341,0.0353,0.0353,0.0353,0.0335,0,0.0343,0.038,0.0382,0.0417,0.0437,0.043,0.0449,0.0459,0.0464,0.0481,0.0453,0.0465,0.0421,0.0422,0.0406,0.038,0.0366,0.0369,0.0326,0.0325,0.032,0.0343,0.0354,0.0339,0.0335,0.0335,0.0335,0,0.0373,0.0395,0.0433,0.0468,0.0477,0.0494,0.053,0.0547,0.0564,0.0569,0.0568,0.0545,0.0529,0.0483,0.0441,0.0446,0.04,0.037,0.0368,0.0347,0.0319,0.0317,0.034,0.0284,0.0336,0.0336,0.0336,0,0.0396,0.0433,0.0466,0.0476,0.051,0.0527,0.0548,0.0577,0.0612,0.0627,0.0647,0.0621,0.0614,0.0552,0.0476,0.0461,0.0427,0.0398,0.0346,0.0345,0.0339,0.0337,0.0307,0.0363,0.0363,0.0363,0.0363,0,0.0426,0.0453,0.048,0.0499,0.055,0.0561,0.0623,0.064,0.0683,0.0738,0.0693,0.0721,0.0632,0.0594,0.0509,0.0437,0.045,0.0359,0.0344,0.0355,0.0354,0.0292,0.0261,0.0362,0.0362,0.0362,0.0362,0,0.0449,0.0463,0.0507,0.0546,0.0562,0.0601,0.0671,0.0723,0.0749,0.0814,0.0816,0.0808,0.0761,0.0663,0.0578,0.0494,0.0385,0.0381,0.0398,0.0385,0.028,0.0251,0.0213,0.0186,0.0323,0.0323,0.0323,0,0.0466,0.0489,0.0541,0.0575,0.0594,0.0654,0.0703,0.0752,0.0814,0.087,0.0906,0.088,0.0874,0.0745,0.0602,0.0462,0.0391,0.0373,0.0341,0.0285,0.0241,0.0225,0.0204,0.0348,0.0348,0.0348,0.0348,0,0.05,0.0515,0.0551,0.0617,0.0669,0.0739,0.081,0.0867,0.0931,0.098,0.104,0.1036,0.0921,0.0802,0.0613,0.0507,0.0347,0.0369,0.0309,0.0262,0.0245,0.0208,0.0345,0.0348,0.0348,0.0348,0.0348,0.0348,0.0525,0.0556,0.0601,0.0664,0.0729,0.0811,0.0872,0.0954,0.1046,0.1122,0.113,0.1133,0.0968,0.0721,0.0579,0.0344,0.0346,0.0269,0.024,0.0229,0.0204,0.0341,0.0327,0.0327,0.0327,0.0327,0.0327,0,0.0553,0.0587,0.0648,0.0722,0.0791,0.0821,0.0935,0.1,0.1101,0.1169,0.1214,0.113,0.0931,0.0704,0.0403,0.0247,0.0185,0.0164,0.0142,0.0125,0.0247,0.0248,0.022,0.022,0.022,0.022,0.022,0.022,0.0569,0.0618,0.0646,0.0752,0.0808,0.09,0.0962,0.1062,0.1135,0.1204,0.1205,0.1199,0.104,0.0549,0.0227,0.0147,0.0044,0.0027,-0.0026,0.0052,0.0059,0.0067,0.006,-0.0007,-0.0007,-0.0127,-0.0128,-0.0129]}],[{"header":{"parameterUnit":"m.s-1","parameterCategory":2,"la1":30.2991,"la2":30.254,"lo1":-89.0895,"lo2":-89.0444,"dy":0.0017,"dx":0.0017,"nx":28,"ny":28,"refTime":"2025-02-11T03:00:00:Z","depth":"2","parameterNumber":2,"parameterNumberName":"U-component_of_CURRENTS"},"data":[0,0,0,0,0,0,0,0,0,0,0,0,0,0,0,0,0,0,0,0,0,0,0,0,0,0,0,0,0,0,0,0,0,0,0,0,0,0,0,0,0,0,0,0,0,0,0,0,0,0,0,0,0,0,0,0,0,0,0.1483,0.1483,0,0.148,0.148,0.148,0.1485,0.1485,0.1485,0.1486,0.1488,0.1488,0.1488,0,0,0,0,0,0,0,0,0,0,0,0,0,0.1487,0.1487,0.1483,0.1483,0.1483,0.148,0.148,0.148,0.1485,0.1485,0.1485,0.1486,0.1488,0.1488,0.1488,0,0,0,0,0,0,0,0,0,0,0,0,0,0.1486,0.1487,0.1483,0.1484,0.1485,0.148,0.148,0.148,0.1485,0.1485,0.1486,0.1486,0.1488,0.1488,0.1488,0.1484,0,0,0.1488,0.1488,0,0,0,0,0,0,0,0,0.1486,0.1485,0.1484,0.1484,0.1484,0.1483,0.1483,0.1482,0.1485,0.1485,0.1486,0.1486,0.1487,0.1487,0.1486,0.1484,0.1484,0.1488,0.1488,0.1488,0.1488,0,0,0,0,0,0,0,0.1486,0.1485,0.1482,0.1484,0.1484,0.1484,0.1484,0.1483,0.1485,0.1485,0.1485,0.1485,0.1487,0.1486,0.1486,0.1484,0.1488,0.1488,0.1488,0.1488,0.1522,0.1523,0,0,0,0,0,0,0.1485,0.1486,0.1482,0.1482,0.1485,0.1484,0.1484,0.1484,0.1485,0.1485,0.1485,0.1485,0.1486,0.1486,0.1486,0.1518,0.1488,0.1488,0.1488,0.1521,0.1522,0.1523,0,0,0,0,0,0,0.1486,0.1485,0.1482,0.1484,0.1483,0.1484,0.1483,0.1483,0.1493,0.1484,0.1485,0.1495,0.1486,0.1486,0.1497,0.1517,0.1488,0.1488,0.152,0.1521,0.1523,0.1558,0,0,0,0,0,0,0.1486,0.1485,0.1488,0.1483,0.1483,0.1487,0.1483,0.1483,0.1491,0.1492,0.1493,0.1493,0.1487,0.1497,0.1497,0.1516,0.1488,0.1519,0.152,0.1522,0.1556,0.1561,0.1565,0,0,0,0,0,0.1486,0.1483,0.1488,0.1488,0.1486,0.1487,0.1487,0.1488,0.1492,0.1498,0.1501,0.1494,0.1508,0.1497,0.1497,0.1517,0.1518,0.152,0.1522,0.1554,0.156,0.1565,0,0,0,0,0,0,0.1486,0.1483,0.1489,0.1486,0.1492,0.1488,0.1492,0.1495,0.1502,0.1506,0.1501,0.1501,0.152,0.1513,0.1501,0.1533,0.1514,0.1516,0.1538,0.1544,0.1548,0.1547,0.1487,0,0,0,0,0,0.1488,0.1488,0.1489,0.1491,0.1494,0.1498,0.15,0.1503,0.1506,0.151,0.1509,0.1515,0.1526,0.1531,0.1534,0.1547,0.155,0.1562,0.1567,0.157,0.157,0.1602,0.161,0.153,0.153,0.153,0,0,0.149,0.1488,0.149,0.1492,0.1497,0.1503,0.15,0.1508,0.1517,0.1508,0.1522,0.1529,0.1534,0.1551,0.156,0.1549,0.1594,0.1573,0.1576,0.1574,0.1605,0.1613,0.162,0.1532,0.1531,0.1531,0,0,0.149,0.1494,0.1495,0.1501,0.151,0.1513,0.1519,0.1522,0.153,0.1543,0.1546,0.1565,0.1572,0.1583,0.1589,0.1621,0.1618,0.1626,0.1647,0.1678,0.1685,0.1691,0.1702,0.1709,0.1628,0.1628,0.1628,0,0.1494,0.1494,0.1497,0.1502,0.1508,0.1519,0.1526,0.1537,0.1544,0.1557,0.1553,0.1587,0.1588,0.1621,0.1632,0.1631,0.1642,0.1625,0.1684,0.169,0.1696,0.1706,0.1713,0.163,0.163,0.1629,0.1629,0,0.1494,0.15,0.1503,0.1514,0.1522,0.153,0.1544,0.1558,0.1571,0.1584,0.1619,0.1626,0.1649,0.1656,0.1652,0.1697,0.1689,0.1687,0.167,0.1706,0.1714,0.1721,0.1633,0.1632,0.1631,0.1631,0,0,0.1486,0.15,0.1502,0.1509,0.1528,0.1533,0.1558,0.1582,0.1608,0.1625,0.1657,0.1682,0.1696,0.1705,0.1711,0.1733,0.1779,0.1728,0.1728,0.1737,0.184,0.178,0.1781,0.1792,0.1794,0.1795,0.1829,0,0.1488,0.1494,0.1504,0.1518,0.1523,0.1546,0.1569,0.1597,0.1625,0.1659,0.1686,0.1718,0.1714,0.1731,0.1757,0.1775,0.1798,0.1769,0.1805,0.1805,0.1747,0.1788,0.1628,0.1641,0.1835,0.1836,0.1837,0,0.1481,0.1487,0.1497,0.152,0.1526,0.1541,0.1583,0.1607,0.1663,0.1691,0.1736,0.1755,0.1798,0.1785,0.1841,0.1826,0.1836,0.1844,0.1846,0.1781,0.1758,0.1637,0.1645,0.1848,0.1847,0.1846,0.1845,0,0.146,0.148,0.1487,0.1494,0.1524,0.1541,0.1565,0.1618,0.165,0.1716,0.1746,0.1802,0.1832,0.1862,0.188,0.1869,0.1931,0.1919,0.1873,0.1869,0.1734,0.1714,0.1958,0.1958,0.1958,0.1958,0.1958,0,0.1446,0.1452,0.1479,0.1482,0.1504,0.1531,0.157,0.1608,0.1671,0.1708,0.1763,0.1797,0.1855,0.1892,0.1901,0.1908,0.1954,0.1882,0.1879,0.174,0.1722,0.19,0.1892,0.1959,0.1959,0.1959,0.1958,0,0.1419,0.1435,0.1445,0.1479,0.1491,0.1508,0.1567,0.1596,0.1663,0.171,0.1731,0.1813,0.1856,0.1897,0.1947,0.1929,0.1941,0.1931,0.1754,0.1729,0.185,0.1844,0.1882,0.1881,0.1879,0.1878,0.1877,0,0.1406,0.1406,0.1438,0.1444,0.146,0.1493,0.1515,0.1586,0.1616,0.1706,0.1719,0.179,0.1813,0.1869,0.1859,0.1864,0.1917,0.1716,0.1663,0.1852,0.1845,0.1842,0.1838,0.1498,0.1494,0.1491,0.1488,0,0.1381,0.1394,0.1403,0.1416,0.1434,0.1454,0.1489,0.151,0.1582,0.162,0.1665,0.1693,0.1744,0.1682,0.1698,0.1678,0.1701,0.1648,0.1906,0.154,0.1492,0.1485,0.1493,0.1459,0.1462,0.1464,0.1466,0.1467,0.1365,0.1364,0.1374,0.1379,0.1397,0.1395,0.1388,0.1422,0.1447,0.147,0.1549,0.1537,0.1562,0.1501,0.1455,0.142,0.1541,0.1464,0.1473,0.1486,0.1434,0.1386,0.1322,0.1324,0.1326,0.1328,0.1329,0,0.1331,0.1329,0.1332,0.1325,0.1311,0.1345,0.135,0.1323,0.1306,0.1346,0.1364,0.1252,0.1203,0.1231,0.1129,0.1125,0.1108,0.1076,0.1039,0.107,0.1096,0.1023,0.0803,0.0801,0.08,0.0798,0,0,0.1312,0.1291,0.1282,0.1234,0.1232,0.1192,0.1177,0.1147,0.1149,0.1109,0.1088,0.1164,0.12,0.0995,0.0961,0.0865,0.0963,0.0826,0.1249,0.1237,0.1262,0.1321,0.1243,0,0,0,0,0]},{"header":{"parameterUnit":"m.s-1","parameterCategory":2,"la1":30.2991,"la2":30.254,"lo1":-89.0895,"lo2":-89.0444,"dy":0.0017,"dx":0.0017,"nx":28,"ny":28,"refTime":"2025-02-11T03:00:00:Z","depth":"2","parameterNumber":3,"parameterNumberName":"V-component_of_CURRENTS"},"data":[0,0,0,0,0,0,0,0,0,0,0,0,0,0,0,0,0,0,0,0,0,0,0,0,0,0,0,0,0,0,0,0,0,0,0,0,0,0,0,0,0,0,0,0,0,0,0,0,0,0,0,0,0,0,0,0,0,0,-0.0021,-0.0021,0,-0.0035,-0.0035,-0.0035,-0.0052,-0.0052,-0.0052,-0.0052,-0.0075,-0.0075,-0.0076,0,0,0,0,0,0,0,0,0,0,0,0,0,-0.0021,-0.0021,-0.0021,-0.0021,-0.0021,-0.0035,-0.0035,-0.0035,-0.0052,-0.0052,-0.0052,-0.0052,-0.0075,-0.0075,-0.0076,0,0,0,0,0,0,0,0,0,0,0,0,0,-0.0027,-0.0021,-0.0021,-0.003,-0.0031,-0.0035,-0.0035,-0.0035,-0.0051,-0.0052,-0.0052,-0.0052,-0.0074,-0.0075,-0.0076,-0.0074,0,0,-0.0078,-0.0078,0,0,0,0,0,0,0,0,-0.0027,-0.0027,-0.0029,-0.003,-0.0031,-0.0041,-0.0043,-0.0048,-0.0051,-0.0045,-0.0052,-0.0052,-0.0063,-0.0065,-0.0068,-0.0075,-0.0076,-0.0078,-0.0078,-0.0078,-0.0079,0,0,0,0,0,0,0,-0.0026,-0.0027,-0.0027,-0.0029,-0.003,-0.0038,-0.0039,-0.0044,-0.0053,-0.0045,-0.0046,-0.0046,-0.0064,-0.0067,-0.0069,-0.0077,-0.0078,-0.0078,-0.0079,-0.0079,-0.0079,-0.0078,0,0,0,0,0,0,-0.0022,-0.0026,-0.0027,-0.0028,-0.0028,-0.0038,-0.0039,-0.0038,-0.0053,-0.0055,-0.0046,-0.0047,-0.0066,-0.0068,-0.007,-0.0056,-0.0078,-0.0079,-0.0079,-0.0079,-0.0078,-0.0078,0,0,0,0,0,0,-0.0022,-0.0022,-0.0026,-0.0027,-0.0028,-0.0037,-0.0036,-0.0038,-0.004,-0.0053,-0.0056,-0.0046,-0.0066,-0.0069,-0.0071,-0.0057,-0.0079,-0.008,-0.0079,-0.0079,-0.0078,-0.0036,0,0,0,0,0,0,-0.0022,-0.0022,-0.002,-0.0026,-0.0027,-0.0023,-0.0036,-0.0038,-0.0039,-0.0041,-0.0054,-0.0056,-0.0067,-0.007,-0.0071,-0.0059,-0.008,-0.008,-0.0079,-0.0078,-0.0038,-0.0034,-0.0031,0,0,0,0,0,-0.0022,-0.0016,-0.002,-0.002,-0.0025,-0.0023,-0.0024,-0.0032,-0.0039,-0.0036,-0.0046,-0.0056,-0.0066,-0.007,-0.0072,-0.0059,-0.008,-0.0079,-0.0079,-0.004,-0.0035,-0.0031,0,0,0,0,0,0,-0.0014,-0.0017,-0.0022,-0.0017,-0.0018,-0.0025,-0.0023,-0.0029,-0.0034,-0.0037,-0.0051,-0.0054,-0.0051,-0.0062,-0.0065,-0.0057,-0.0075,-0.0074,-0.0045,-0.004,-0.0037,-0.0027,-0.0081,0,0,0,0,0,-0.0012,-0.0009,-0.0012,-0.0009,-0.0008,-0.0015,-0.0016,-0.0021,-0.0026,-0.0029,-0.0037,-0.0046,-0.0049,-0.005,-0.0057,-0.0052,-0.0064,-0.0045,-0.0042,-0.0038,-0.0032,-0.0042,-0.0038,-0.0075,-0.0075,-0.0075,0,0,-0.0008,-0.0009,-0.0008,-0.0007,-0.001,0.0,-0.0017,-0.0014,-0.0006,-0.003,-0.0024,-0.0034,-0.0045,-0.0039,-0.0039,-0.0047,-0.0035,-0.0037,-0.0034,-0.003,-0.004,-0.0037,-0.0034,-0.0074,-0.0075,-0.0075,0,0,0.0006,0.0001,0.001,0.0012,0.0012,0.001,0.0013,0.001,0.0007,0.0011,-0.0003,-0.0006,-0.0011,-0.0015,-0.0018,0.0001,-0.0017,0.0,0.0028,0.0019,0.0022,0.0025,0.0013,0.0014,0.0003,0.0003,0.0003,0,0.0012,0.0022,0.0013,0.0024,0.0031,0.0018,0.0034,0.0032,0.0028,0.0034,0.0018,0.0015,0.0001,0.0014,0.002,0.001,0.0001,0.0014,0.0024,0.0027,0.0029,0.0016,0.0016,0.0005,0.0005,0.0005,0.0005,0,0.0034,0.0043,0.005,0.0061,0.0066,0.0077,0.0076,0.008,0.0073,0.0075,0.0081,0.0059,0.006,0.0054,0.0043,0.0055,0.0043,0.0029,0.0015,0.0035,0.002,0.002,0.0008,0.0008,0.0007,0.0006,0,0,0.0048,0.0063,0.0066,0.008,0.0087,0.0097,0.011,0.0126,0.0146,0.0129,0.0149,0.0135,0.0124,0.0119,0.0101,0.0092,0.0092,0.0071,0.007,0.0062,0.0073,0.0062,0.006,0.0082,0.0083,0.0083,0.0057,0,0.0071,0.01,0.0101,0.0133,0.0151,0.0148,0.0167,0.0177,0.0182,0.0197,0.0173,0.0182,0.0148,0.015,0.0135,0.0107,0.0095,0.0101,0.0053,0.0051,0.0041,0.0061,0.0076,0.0054,0.0057,0.0057,0.0057,0,0.0095,0.0113,0.0147,0.0177,0.0185,0.0202,0.0236,0.0252,0.0268,0.0272,0.0271,0.0252,0.024,0.0201,0.016,0.0167,0.0125,0.0095,0.0093,0.0069,0.004,0.0035,0.0054,0.0057,0.0057,0.0057,0.0057,0,0.0114,0.0146,0.0175,0.0185,0.0215,0.0232,0.0251,0.0278,0.0307,0.0321,0.0338,0.0316,0.0308,0.0254,0.0186,0.0176,0.0135,0.0111,0.0059,0.0057,0.0054,0.0052,0.0077,0.0078,0.0078,0.0078,0.0078,0,0.0138,0.0162,0.0187,0.0204,0.025,0.026,0.0314,0.033,0.0366,0.041,0.0378,0.0398,0.0322,0.0285,0.0211,0.0141,0.0152,0.0071,0.0054,0.0068,0.0068,0.0055,0.0053,0.0077,0.0077,0.0077,0.0077,0,0.0154,0.0167,0.0206,0.0243,0.0259,0.0294,0.0356,0.0398,0.0422,0.0473,0.0477,0.047,0.0425,0.0338,0.0257,0.0183,0.0108,0.0076,0.0097,0.0083,0.0028,0.0028,0.0019,0.0018,0.0018,0.0018,0.0017,0,0.0164,0.0184,0.0235,0.0266,0.0284,0.0338,0.0381,0.0424,0.0474,0.0518,0.0545,0.052,0.0511,0.0389,0.0264,0.0139,0.0114,0.006,0.0039,0.0039,0.0024,0.0024,0.0025,0.0049,0.0049,0.0049,0.0049,0,0.0187,0.0203,0.0236,0.0297,0.0344,0.0407,0.0468,0.0514,0.0565,0.0607,0.0653,0.0646,0.0539,0.0432,0.0263,0.0172,0.008,0.0055,0.0058,0.0061,0.0065,0.005,0.0051,0.0048,0.0048,0.0048,0.0048,0.0048,0.0204,0.0231,0.0273,0.0332,0.0391,0.0463,0.0513,0.0582,0.0658,0.0717,0.0719,0.0711,0.0589,0.0382,0.0238,0.0083,0.0087,0.0021,0.0022,0.0023,0.0031,0.0034,0.0013,0.0012,0.0012,0.0012,0.0012,0,0.0225,0.0255,0.0307,0.0375,0.0438,0.047,0.0564,0.0615,0.0698,0.0756,0.0791,0.0666,0.0552,0.0402,0.0182,0.0046,0.0032,-0.0006,0.0012,0.0014,0.0015,0.0023,0.0002,0.0002,0.0001,0.0001,0,0,0.0236,0.0279,0.0302,0.0396,0.0451,0.0533,0.0586,0.0663,0.0723,0.0777,0.0784,0.0775,0.0601,0.0435,0.026,0.0136,0.0101,0.0103,0.0126,0.0171,0.0174,0.0047,0.0063,0,0,0,0,0]}],[{"header":{"parameterUnit":"m.s-1","parameterCategory":2,"la1":30.2991,"la2":30.254,"lo1":-89.0895,"lo2":-89.0444,"dy":0.0017,"dx":0.0017,"nx":28,"ny":28,"refTime":"2025-02-11T03:00:00:Z","depth":"4","parameterNumber":2,"parameterNumberName":"U-component_of_CURRENTS"},"data":[0,0,0,0,0,0,0,0,0,0,0,0,0,0,0,0,0,0,0,0,0,0,0,0,0,0,0,0,0,0,0,0,0,0,0,0,0,0,0,0,0,0,0,0,0,0,0,0,0,0,0,0,0,0,0,0,0,0,0.0797,0.0798,0,0.085,0.085,0.0851,0.0886,0.0886,0.0887,0.0887,0.0934,0.0935,0.0936,0,0,0,0,0,0,0,0,0,0,0,0,0,0.0749,0.075,0.0797,0.0798,0.0799,0.0849,0.085,0.0851,0.0886,0.0886,0.0887,0.0887,0.0934,0.0935,0.0936,0,0,0,0,0,0,0,0,0,0,0,0,0,0.0781,0.075,0.0797,0.0823,0.0826,0.0849,0.085,0.0851,0.0886,0.0886,0.0887,0.0887,0.0934,0.0935,0.0936,0.0934,0,0,0.0941,0.0941,0,0,0,0,0,0,0,0,0.078,0.0783,0.0819,0.0822,0.0825,0.0863,0.0851,0.0879,0.0886,0.0862,0.0887,0.0888,0.091,0.0914,0.0921,0.0936,0.0938,0.0941,0.0942,0.0942,0.0942,0,0,0,0,0,0,0,0.0777,0.0781,0.0817,0.082,0.0823,0.084,0.0845,0.0856,0.0881,0.0864,0.0867,0.0875,0.0912,0.0919,0.0922,0.0939,0.0941,0.0942,0.0943,0.0943,0.1016,0.1017,0,0,0,0,0,0,0.0772,0.0779,0.0815,0.0818,0.0805,0.084,0.0846,0.0849,0.0881,0.0887,0.0874,0.0876,0.0917,0.092,0.0924,0.0979,0.0942,0.0943,0.0944,0.1015,0.1016,0.1018,0,0,0,0,0,0,0.077,0.0774,0.0813,0.0801,0.0807,0.0841,0.0844,0.085,0.0878,0.0889,0.0895,0.0899,0.0917,0.0922,0.0953,0.0979,0.0944,0.0945,0.1014,0.1016,0.1017,0.1054,0,0,0,0,0,0,0.0769,0.0773,0.0783,0.0801,0.0808,0.084,0.0844,0.0851,0.0881,0.0885,0.0912,0.0916,0.0918,0.0951,0.0955,0.098,0.0946,0.1012,0.1015,0.1017,0.1051,0.1057,0.1061,0,0,0,0,0,0.0767,0.0776,0.0783,0.0788,0.0817,0.0841,0.0847,0.0871,0.0882,0.0898,0.0918,0.0916,0.0967,0.0953,0.0957,0.0984,0.1011,0.1014,0.1016,0.1049,0.1056,0.1061,0,0,0,0,0,0,0.0764,0.0781,0.0789,0.0804,0.0828,0.0848,0.0869,0.0882,0.0911,0.0921,0.0928,0.0934,0.0972,0.0972,0.0957,0.1011,0.099,0.0993,0.1014,0.102,0.1025,0.1021,0.0947,0,0,0,0,0,0.0766,0.0777,0.0797,0.0812,0.0826,0.0851,0.0868,0.0885,0.0907,0.0922,0.0939,0.096,0.0981,0.0996,0.1012,0.104,0.1041,0.1061,0.1066,0.107,0.107,0.1101,0.1108,0.1026,0.1026,0.1026,0,0,0.0769,0.0781,0.0789,0.0813,0.0835,0.0857,0.0863,0.0896,0.0918,0.0921,0.0962,0.0979,0.0992,0.1026,0.1043,0.1033,0.1094,0.1073,0.1076,0.1074,0.1104,0.1112,0.1119,0.1028,0.1027,0.1027,0,0,0.078,0.0795,0.0809,0.0828,0.0863,0.0876,0.089,0.0922,0.0943,0.0979,0.0989,0.1021,0.1052,0.1068,0.1078,0.1119,0.1118,0.113,0.1154,0.1185,0.1191,0.1198,0.1206,0.1212,0.1134,0.1134,0.1134,0,0.0788,0.0803,0.0819,0.084,0.0859,0.0887,0.091,0.0934,0.0973,0.0994,0.0999,0.1059,0.1071,0.1111,0.1127,0.1131,0.1142,0.113,0.1191,0.1197,0.1202,0.1209,0.1216,0.1136,0.1135,0.1135,0.1135,0,0.0804,0.0825,0.0839,0.0869,0.0892,0.0919,0.0949,0.098,0.1008,0.1033,0.1086,0.1106,0.1142,0.1154,0.1153,0.1203,0.1195,0.1193,0.1174,0.1213,0.1218,0.1224,0.1139,0.1138,0.1137,0.1137,0,0,0.0797,0.084,0.0848,0.0866,0.091,0.0928,0.097,0.1012,0.1046,0.1088,0.1131,0.1172,0.1193,0.1205,0.1216,0.124,0.1286,0.1237,0.1238,0.1242,0.1345,0.1241,0.1238,0.1301,0.1303,0.1304,0.1331,0,0.0808,0.0843,0.0864,0.0904,0.0924,0.096,0.0994,0.1038,0.1079,0.1128,0.1164,0.121,0.121,0.1236,0.1263,0.1283,0.1306,0.1278,0.1309,0.131,0.121,0.1243,0.1308,0.1336,0.1337,0.1338,0.1339,0,0.0814,0.0836,0.0873,0.0917,0.0931,0.0961,0.1021,0.1056,0.1126,0.1163,0.1219,0.1248,0.1299,0.1289,0.1347,0.1333,0.1344,0.1351,0.1353,0.1246,0.1218,0.129,0.135,0.1349,0.1348,0.1347,0.1347,0,0.079,0.084,0.0868,0.0884,0.0941,0.097,0.1005,0.1072,0.111,0.1192,0.123,0.1293,0.1332,0.1362,0.1383,0.1376,0.1432,0.1422,0.1336,0.1329,0.1397,0.1391,0.146,0.146,0.146,0.146,0.146,0,0.078,0.0806,0.0862,0.0877,0.0917,0.0962,0.1017,0.1064,0.1137,0.1181,0.125,0.1287,0.1356,0.1392,0.1402,0.1383,0.1451,0.134,0.1332,0.1411,0.1406,0.1401,0.1394,0.1461,0.1461,0.146,0.146,0,0.075,0.0788,0.0823,0.0885,0.0908,0.0939,0.1018,0.1052,0.1131,0.1189,0.1217,0.1303,0.1344,0.1388,0.1435,0.1395,0.1393,0.137,0.1447,0.1442,0.1264,0.1259,0.1271,0.1268,0.1265,0.1263,0.1261,0,0.0736,0.0752,0.0821,0.0842,0.0875,0.0929,0.0962,0.1044,0.1077,0.1181,0.1195,0.127,0.1313,0.1299,0.135,0.1355,0.134,0.1325,0.1294,0.1255,0.1247,0.1246,0.1244,0.1256,0.1256,0.1255,0.1254,0,0.0707,0.0741,0.0769,0.0811,0.085,0.0886,0.0937,0.0955,0.104,0.1121,0.1147,0.1169,0.1209,0.1237,0.1251,0.1253,0.1326,0.1295,0.1301,0.1272,0.1237,0.1231,0.1233,0.1244,0.1246,0.1246,0.1247,0,0.0689,0.07,0.074,0.0771,0.0813,0.0823,0.086,0.0891,0.0934,0.1039,0.1044,0.1121,0.1196,0.1183,0.1196,0.1189,0.1167,0.1122,0.1136,0.1148,0.1093,0.1031,0.0967,0,0,0,0,0,0.0666,0.0669,0.0693,0.0716,0.0752,0.0776,0.0832,0.0869,0.0947,0.0936,0.0987,0.1017,0.1036,0.1078,0.1045,0.1135,0.117,0.1089,0.1125,0.1189,0.1201,0.1147,0,0,0,0,0,0,0.0649,0.0671,0.0673,0.0662,0.0668,0.0697,0.0729,0.0781,0.078,0.0866,0.0886,0.0947,0.0988,0.1048,0.1026,0.1035,0.1033,0.1137,0.1134,0.1183,0.1193,0.1202,0.1151,0,0,0,0,0]},{"header":{"parameterUnit":"m.s-1","parameterCategory":2,"la1":30.2991,"la2":30.254,"lo1":-89.0895,"lo2":-89.0444,"dy":0.0017,"dx":0.0017,"nx":28,"ny":28,"refTime":"2025-02-11T03:00:00:Z","depth":"4","parameterNumber":3,"parameterNumberName":"V-component_of_CURRENTS"},"data":[0,0,0,0,0,0,0,0,0,0,0,0,0,0,0,0,0,0,0,0,0,0,0,0,0,0,0,0,0,0,0,0,0,0,0,0,0,0,0,0,0,0,0,0,0,0,0,0,0,0,0,0,0,0,0,0,0,0,-0.001,-0.0011,0,-0.0029,-0.003,-0.003,-0.0047,-0.0048,-0.0048,-0.0048,-0.0072,-0.0073,-0.0073,0,0,0,0,0,0,0,0,0,0,0,0,0,-0.0001,-0.0001,-0.001,-0.0011,-0.0011,-0.0029,-0.003,-0.003,-0.0047,-0.0048,-0.0048,-0.0048,-0.0072,-0.0073,-0.0073,0,0,0,0,0,0,0,0,0,0,0,0,0,-0.0012,-0.0001,-0.001,-0.0021,-0.0023,-0.0029,-0.003,-0.003,-0.0047,-0.0048,-0.0048,-0.0048,-0.0072,-0.0073,-0.0073,-0.0073,0,0,-0.0076,-0.0076,0,0,0,0,0,0,0,0,-0.0011,-0.0012,-0.002,-0.0021,-0.0022,-0.0036,-0.0035,-0.0045,-0.0047,-0.0038,-0.0048,-0.0048,-0.006,-0.0062,-0.0066,-0.0074,-0.0075,-0.0076,-0.0076,-0.0077,-0.0077,0,0,0,0,0,0,0,-0.001,-0.0011,-0.0018,-0.002,-0.0021,-0.003,-0.0031,-0.0037,-0.0048,-0.0039,-0.004,-0.0042,-0.0061,-0.0065,-0.0066,-0.0075,-0.0076,-0.0076,-0.0077,-0.0077,-0.0084,-0.0084,0,0,0,0,0,0,-0.0006,-0.001,-0.0018,-0.0019,-0.0016,-0.0029,-0.0031,-0.0032,-0.0048,-0.0051,-0.0041,-0.0042,-0.0063,-0.0065,-0.0067,-0.006,-0.0077,-0.0077,-0.0078,-0.0084,-0.0084,-0.0084,0,0,0,0,0,0,-0.0006,-0.0006,-0.0017,-0.0015,-0.0017,-0.0029,-0.0029,-0.0032,-0.0037,-0.005,-0.0052,-0.0044,-0.0064,-0.0066,-0.0071,-0.0062,-0.0078,-0.0078,-0.0085,-0.0084,-0.0084,-0.0051,0,0,0,0,0,0,-0.0005,-0.0006,-0.0006,-0.0015,-0.0017,-0.0019,-0.0029,-0.0032,-0.0037,-0.0038,-0.0052,-0.0055,-0.0064,-0.007,-0.0072,-0.0063,-0.0079,-0.0085,-0.0084,-0.0084,-0.0053,-0.005,-0.0047,0,0,0,0,0,-0.0005,-0.0002,-0.0006,-0.0007,-0.0015,-0.0018,-0.002,-0.003,-0.0037,-0.0036,-0.0046,-0.0055,-0.0068,-0.007,-0.0073,-0.0064,-0.0085,-0.0085,-0.0084,-0.0054,-0.005,-0.0047,0,0,0,0,0,0,0.0002,-0.0003,-0.0008,-0.0007,-0.0011,-0.0021,-0.0023,-0.0029,-0.0037,-0.0039,-0.0052,-0.0055,-0.0056,-0.0065,-0.0067,-0.0065,-0.0078,-0.0078,-0.0054,-0.0051,-0.0048,-0.0041,-0.0079,0,0,0,0,0,0.0005,0.0005,-0.0001,-0.0001,-0.0002,-0.0012,-0.0015,-0.0022,-0.0029,-0.0033,-0.0042,-0.0051,-0.0055,-0.0057,-0.0065,-0.0063,-0.0075,-0.0059,-0.0056,-0.0054,-0.005,-0.0061,-0.0059,-0.0082,-0.0082,-0.0082,0,0,0.0007,0.0004,0.0005,0.0001,-0.0005,-0.0001,-0.0015,-0.0018,-0.0014,-0.0034,-0.0033,-0.0043,-0.0053,-0.0051,-0.0052,-0.0058,-0.0054,-0.0053,-0.0051,-0.0048,-0.006,-0.0058,-0.0056,-0.0081,-0.0081,-0.0081,0,0,0.0016,0.0011,0.0015,0.0014,0.0009,0.0006,0.0006,-0.0002,-0.0006,-0.0007,-0.0018,-0.0023,-0.0031,-0.0034,-0.0037,-0.0025,-0.0041,-0.0026,-0.0005,-0.0015,-0.0014,-0.0012,-0.0026,-0.0026,-0.0023,-0.0023,-0.0023,0,0.0019,0.0024,0.0016,0.0021,0.0024,0.0011,0.0019,0.0016,0.0007,0.001,-0.0003,-0.001,-0.0022,-0.0014,-0.001,-0.0018,-0.0028,-0.0015,-0.0012,-0.001,-0.0009,-0.0024,-0.0025,-0.0021,-0.0022,-0.0022,-0.0022,0,0.0032,0.0036,0.0039,0.0044,0.0046,0.005,0.0047,0.0047,0.0041,0.0039,0.004,0.0022,0.0019,0.0015,0.0007,0.0013,0.0002,-0.0008,-0.0018,-0.0005,-0.0022,-0.0023,-0.0019,-0.002,-0.002,-0.0021,0,0,0.0039,0.0047,0.0048,0.0057,0.0059,0.0063,0.0072,0.008,0.0092,0.0077,0.0088,0.0076,0.0066,0.0062,0.0049,0.0039,0.0034,0.0022,0.0021,0.0011,0.0009,0.0002,0.0,0.0026,0.0026,0.0026,-0.0006,0,0.0052,0.0069,0.0069,0.0089,0.0099,0.0097,0.011,0.0116,0.0117,0.0123,0.0104,0.0108,0.0085,0.0084,0.0071,0.0045,0.0033,0.0044,-0.0004,-0.0006,-0.0011,-0.0,0.0026,-0.0007,-0.0007,-0.0007,-0.0007,0,0.0064,0.0076,0.0097,0.0117,0.0122,0.0134,0.0156,0.0167,0.0175,0.0175,0.0172,0.0156,0.0144,0.0117,0.0078,0.0086,0.0052,0.0026,0.0024,0.0007,-0.0014,-0.0023,-0.001,-0.0009,-0.0009,-0.0009,-0.0009,0,0.0075,0.0096,0.0114,0.0121,0.0142,0.0154,0.0168,0.0185,0.0204,0.021,0.0218,0.0198,0.0188,0.0144,0.0089,0.0085,0.0038,0.0025,-0.0015,-0.0016,-0.0016,-0.0017,-0.0006,-0.0005,-0.0005,-0.0005,-0.0005,0,0.0088,0.0104,0.0122,0.0133,0.0164,0.0173,0.021,0.022,0.0242,0.0269,0.0247,0.0254,0.0194,0.0159,0.0102,0.0042,0.0047,-0.0008,-0.0022,-0.0002,-0.0001,-0.0017,-0.0018,-0.0007,-0.0006,-0.0006,-0.0006,0,0.0094,0.0105,0.013,0.0157,0.0169,0.0193,0.0237,0.0266,0.0282,0.0311,0.0313,0.0299,0.0255,0.0188,0.0117,0.0065,0.0004,-0.0021,0.0007,-0.0006,-0.0048,-0.0047,-0.0065,-0.0065,-0.0065,-0.0066,-0.0066,0,0.0098,0.0111,0.0147,0.0168,0.0182,0.022,0.0251,0.0282,0.0313,0.0338,0.035,0.0323,0.0299,0.02,0.0125,0.0018,-0.0002,-0.0038,-0.0044,-0.0041,-0.0053,-0.0051,-0.005,-0.0067,-0.0067,-0.0067,-0.0067,0,0.0105,0.0118,0.0139,0.0183,0.0216,0.0261,0.0304,0.0329,0.0363,0.0376,0.0385,0.0337,0.0288,0.0208,0.0125,0.0046,-0.0016,-0.0043,-0.0043,-0.0048,-0.0043,-0.0055,-0.0053,-0.0068,-0.0068,-0.0068,-0.0068,0,0.0111,0.0127,0.0156,0.0196,0.024,0.0286,0.0311,0.0348,0.0379,0.0402,0.0404,0.0353,0.0328,0.0223,0.0146,0.0069,0.0045,0.0011,0.0007,0.0008,0.0035,0.0052,0.0049,0,0,0,0,0,0.0117,0.0135,0.0169,0.0213,0.0258,0.0285,0.034,0.0363,0.0392,0.0402,0.0406,0.0361,0.0262,0.0227,0.0149,0.0126,0.0021,0.0029,-0.0023,-0.0075,-0.0074,-0.0055,0,0,0,0,0,0,0.0119,0.0147,0.0165,0.022,0.0252,0.0304,0.0339,0.0361,0.0373,0.0389,0.0346,0.0328,0.0238,0.0303,0.0143,0.0122,0.0074,-0.0012,-0.0014,-0.0076,-0.0075,-0.0074,-0.0054,0,0,0,0,0]}]]